星链-2484 (STARLINK-2484 )

导读 | 豆包AI

STARLINK-2484是美国SpaceX公司星链低轨互联网星座中的一颗卫星,于2021年4月7日由猎鹰9号火箭发射入轨。星链计划旨在构建全球覆盖的卫星互联网,为偏远地区及各类场景提供高速低延迟宽带服务,该卫星属于星链一代组网卫星,参与实现全球网络覆盖,助力星座初期组网建设,属于星链大规模部署中的一员,具备星链一代卫星典型的通信性能,服务全球卫星互联网接入。

Basic Information
目录编号:
48141
目录名称:
STARLINK-2484
国际标识:
2021-027BB
轨道中心:
EARTH
卫星名称:
星链-2484
卫星全名:
星链-2484 (STARLINK-2484 )
卫星状态:
已陨落 最后检测时间 2025-02-16
发射日期:
2021-04-07 UTC
国别 :
美国 (US)
星等 :
--
Orbit Information
数据来源 国际轨道数据
星历时间: 2025-02-16T06:28:36+0800
轨道信息已过期391天
半长轴: 6595.758km
偏心率: 0.0004562
轨道倾角: 53.038°
近地点辐角 28.590°
升交点赤经 80.191°
平近点角 114.852°
近地点: 214.614km
远地点: 220.632km
周期: 88.850分钟
每日圈数: 16.207116
Detailed Information
固有亮度:
5
最大亮度:
2.5
卫星平台:
Starlink V1.0
覆盖范围:
全球
运营商:
太空探索技术公司
运营商所在国:
美国
制造商(研发单位):
太空探索技术公司
制造商所在国:
美国
使用方式:
暂无
Satellite Introduction
星链(Starlink)计划是由太空探索技术公司(SpaceX)提出的一个巨型低轨卫星互联网星座项目,计划在2019年至2024年间在太空搭建由约1.2万颗卫星组成的“星链”网络,其中1584颗将部署在地球上空550千米处的近地轨道,并从2020年开始工作。该卫星仍在工作。